• In Moldova, Republic
  • List of Countries
  • For 7 days
  • Water Temperature
  • Satellite Maps
  • Weather Map
  • Weather Widgets
  • user-avatar
    Login

    Hourly Weather Canberra

    Today, 24 January, Wednesday

    Time Temperature Precipitation Wind Pressure Humidity
    00:00 +22°C° 0.1 mm 1 mps 706 mmHg 76%
    01:00 +21°C° 0.1 mm 1 mps 706 mmHg 81%
    02:00 +21°C° 0 mm 1 mps 706 mmHg 82%
    03:00 +20°C° 0 mm 1 mps 706 mmHg 83%
    04:00 +20°C° 0 mm 1 mps 706 mmHg 84%
    05:00 +22°C° 0 mm 1 mps 706 mmHg 76%
    06:00 +23°C° 0 mm 1 mps 706 mmHg 68%
    07:00 +25°C° 0 mm 1 mps 707 mmHg 60%
    08:00 +28°C° 0 mm 2 mps 707 mmHg 50%
    09:00 +31°C° 0 mm 3 mps 707 mmHg 41%
    10:00 +35°C° 0 mm 3 mps 708 mmHg 31%
    11:00 +34°C° 0.1 mm 3 mps 707 mmHg 34%
    12:00 +33°C° 0.1 mm 4 mps 707 mmHg 36%
    13:00 +32°C° 0.1 mm 4 mps 707 mmHg 39%
    14:00 +30°C° 0.2 mm 3 mps 706 mmHg 42%
    15:00 +29°C° 0.2 mm 2 mps 706 mmHg 45%
    16:00 +28°C° 0.2 mm 2 mps 705 mmHg 48%
    17:00 +27°C° 0 mm 2 mps 706 mmHg 50%
    18:00 +27°C° 0 mm 2 mps 706 mmHg 52%
    19:00 +26°C° 0 mm 2 mps 706 mmHg 54%
    20:00 +25°C° 0.1 mm 2 mps 706 mmHg 57%
    21:00 +24°C° 0.1 mm 2 mps 706 mmHg 61%
    22:00 +23°C° 0.1 mm 1 mps 707 mmHg 64%
    23:00 +23°C° 0 mm 1 mps 706 mmHg 67%

    Tomorrow, 25 January, Thursday

    Time Temperature Precipitation Wind Pressure Humidity
    00:00 +22°C° 0 mm 1 mps 706 mmHg 70%
    01:00 +22°C° 0 mm 1 mps 706 mmHg 72%
    02:00 +22°C° 0 mm 1 mps 706 mmHg 73%
    03:00 +21°C° 0 mm 1 mps 706 mmHg 73%
    04:00 +21°C° 0 mm 1 mps 705 mmHg 74%
    05:00 +22°C° 0.2 mm 1 mps 706 mmHg 69%
    06:00 +23°C° 0.2 mm 1 mps 706 mmHg 65%
    07:00 +24°C° 0.2 mm 1 mps 706 mmHg 60%
    08:00 +27°C° 0.3 mm 2 mps 707 mmHg 51%
    09:00 +29°C° 0.3 mm 2 mps 707 mmHg 41%
    10:00 +32°C° 0.3 mm 2 mps 707 mmHg 32%
    11:00 +34°C° 0.1 mm 2 mps 707 mmHg 29%
    12:00 +36°C° 0.1 mm 2 mps 707 mmHg 27%
    13:00 +37°C° 0.1 mm 3 mps 707 mmHg 25%
    14:00 +36°C° 0 mm 3 mps 706 mmHg 27%
    15:00 +36°C° 0 mm 3 mps 706 mmHg 29%
    16:00 +35°C° 0 mm 3 mps 706 mmHg 31%
    17:00 +33°C° 0 mm 3 mps 706 mmHg 37%
    18:00 +31°C° 0 mm 2 mps 706 mmHg 43%
    19:00 +29°C° 0 mm 2 mps 706 mmHg 49%
    20:00 +27°C° 0.5 mm 2 mps 706 mmHg 59%
    21:00 +25°C° 0.5 mm 1 mps 706 mmHg 69%
    22:00 +23°C° 0.5 mm 1 mps 707 mmHg 79%
    23:00 +23°C° 0.1 mm 1 mps 707 mmHg 83%

    Day after tomorrow, 26 January, Friday

    Time Temperature Precipitation Wind Pressure Humidity
    00:00 +23°C° 0.1 mm 1 mps 707 mmHg 87%
    01:00 +22°C° 0.1 mm 1 mps 707 mmHg 90%
    02:00 +22°C° 0 mm 1 mps 706 mmHg 92%
    03:00 +21°C° 0 mm 1 mps 706 mmHg 93%
    04:00 +21°C° 0 mm 1 mps 706 mmHg 95%
    05:00 +22°C° 0 mm 1 mps 706 mmHg 90%
    06:00 +23°C° 0 mm 1 mps 707 mmHg 85%
    07:00 +24°C° 0 mm 1 mps 707 mmHg 80%
    08:00 +27°C° 0 mm 1 mps 708 mmHg 66%
    09:00 +30°C° 0 mm 2 mps 708 mmHg 53%
    10:00 +34°C° 0 mm 2 mps 709 mmHg 39%
    11:00 +35°C° 0.1 mm 2 mps 708 mmHg 38%
    12:00 +35°C° 0.1 mm 2 mps 708 mmHg 36%
    13:00 +36°C° 0.1 mm 2 mps 707 mmHg 34%
    14:00 +35°C° 1.7 mm 2 mps 707 mmHg 40%
    15:00 +34°C° 1.7 mm 2 mps 706 mmHg 45%
    16:00 +31°C° 1.7 mm 3 mps 706 mmHg 50%
    17:00 +29°C° 2.6 mm 3 mps 706 mmHg 59%
    18:00 +27°C° 2.6 mm 4 mps 706 mmHg 68%
    19:00 +23°C° 2.6 mm 4 mps 706 mmHg 77%
    20:00 +23°C° 0.2 mm 4 mps 706 mmHg 78%
    21:00 +22°C° 0.2 mm 3 mps 707 mmHg 79%
    22:00 +21°C° 0.2 mm 2 mps 707 mmHg 81%
    23:00 +21°C° 0.7 mm 2 mps 707 mmHg 84%

    27 January, Saturday

    Time Temperature Precipitation Wind Pressure Humidity
    00:00 +21°C° 0.7 mm 2 mps 707 mmHg 87%
    01:00 +21°C° 0.7 mm 2 mps 707 mmHg 90%
    02:00 +21°C° 1 mm 2 mps 707 mmHg 90%
    03:00 +21°C° 1 mm 2 mps 707 mmHg 91%
    04:00 +22°C° 1 mm 1 mps 707 mmHg 91%
    05:00 +22°C° 0.7 mm 1 mps 707 mmHg 90%
    06:00 +22°C° 0.7 mm 1 mps 707 mmHg 89%
    07:00 +23°C° 0.7 mm 1 mps 708 mmHg 88%
    08:00 +24°C° 0.5 mm 1 mps 708 mmHg 85%
    09:00 +25°C° 0.5 mm 1 mps 708 mmHg 81%
    10:00 +26°C° 0.5 mm 1 mps 708 mmHg 78%
    11:00 +28°C° 0.2 mm 1 mps 708 mmHg 68%
    12:00 +30°C° 0.2 mm 2 mps 708 mmHg 58%
    13:00 +32°C° 0.2 mm 2 mps 708 mmHg 49%
    14:00 +34°C° 0 mm 2 mps 708 mmHg 47%
    15:00 +33°C° 0 mm 1 mps 707 mmHg 45%
    16:00 +34°C° 0 mm 1 mps 707 mmHg 43%
    17:00 +32°C° 0.3 mm 1 mps 707 mmHg 49%
    18:00 +30°C° 0.3 mm 2 mps 707 mmHg 56%
    19:00 +28°C° 0.3 mm 3 mps 707 mmHg 63%
    20:00 +27°C° 0.5 mm 2 mps 708 mmHg 70%
    21:00 +25°C° 0.5 mm 2 mps 708 mmHg 77%
    22:00 +24°C° 0.5 mm 2 mps 708 mmHg 85%
    23:00 +23°C° 0 mm 1 mps 708 mmHg 87%

    28 January, Sunday

    Time Temperature Precipitation Wind Pressure Humidity
    00:00 +23°C° 0 mm 1 mps 708 mmHg 90%
    01:00 +22°C° 0 mm 1 mps 707 mmHg 93%
    02:00 +22°C° 0 mm 1 mps 707 mmHg 93%
    03:00 +22°C° 0 mm 1 mps 707 mmHg 94%
    04:00 +22°C° 0 mm 1 mps 707 mmHg 94%
    05:00 +21°C° 0 mm 2 mps 707 mmHg 92%
    06:00 +23°C° 0 mm 2 mps 708 mmHg 89%
    07:00 +23°C° 0 mm 2 mps 708 mmHg 86%
    08:00 +25°C° 0 mm 2 mps 708 mmHg 75%
    09:00 +28°C° 0 mm 2 mps 709 mmHg 63%
    10:00 +30°C° 0 mm 2 mps 709 mmHg 52%
    11:00 +31°C° 0 mm 2 mps 709 mmHg 46%
    12:00 +34°C° 0 mm 2 mps 708 mmHg 41%
    13:00 +35°C° 0 mm 2 mps 708 mmHg 36%
    14:00 +36°C° 0 mm 2 mps 707 mmHg 35%
    15:00 +36°C° 0 mm 2 mps 707 mmHg 35%
    16:00 +36°C° 0 mm 2 mps 706 mmHg 34%
    17:00 +34°C° 0 mm 2 mps 706 mmHg 41%
    18:00 +31°C° 0 mm 3 mps 706 mmHg 47%
    19:00 +29°C° 0 mm 3 mps 706 mmHg 54%
    20:00 +27°C° 0 mm 3 mps 706 mmHg 61%
    21:00 +26°C° 0 mm 3 mps 707 mmHg 69%
    22:00 +24°C° 0 mm 2 mps 707 mmHg 76%
    23:00 +23°C° 0 mm 2 mps 706 mmHg 79%

    29 January, Monday

    Time Temperature Precipitation Wind Pressure Humidity
    00:00 +21°C° 0 mm 2 mps 706 mmHg 81%
    01:00 +21°C° 0 mm 1 mps 705 mmHg 83%
    02:00 +20°C° 0 mm 1 mps 705 mmHg 84%
    03:00 +20°C° 0 mm 1 mps 705 mmHg 85%
    04:00 +19°C° 0 mm 1 mps 705 mmHg 86%
    05:00 +20°C° 0 mm 1 mps 705 mmHg 80%
    06:00 +21°C° 0 mm 1 mps 706 mmHg 74%
    07:00 +22°C° 0 mm 1 mps 706 mmHg 68%
    08:00 +25°C° 0 mm 1 mps 706 mmHg 57%
    09:00 +28°C° 0 mm 2 mps 706 mmHg 45%
    10:00 +30°C° 0 mm 2 mps 706 mmHg 33%
    11:00 +32°C° 0 mm 2 mps 705 mmHg 32%
    12:00 +35°C° 0 mm 2 mps 705 mmHg 30%
    13:00 +36°C° 0 mm 2 mps 704 mmHg 28%
    14:00 +36°C° 0 mm 2 mps 704 mmHg 30%
    15:00 +36°C° 0 mm 2 mps 703 mmHg 31%
    16:00 +35°C° 0 mm 2 mps 702 mmHg 32%
    17:00 +32°C° 0.1 mm 1 mps 702 mmHg 39%
    18:00 +31°C° 0.1 mm 1 mps 702 mmHg 46%
    19:00 +29°C° 0.1 mm 1 mps 702 mmHg 52%
    20:00 +27°C° 0.3 mm 1 mps 702 mmHg 59%
    21:00 +26°C° 0.3 mm 2 mps 702 mmHg 66%
    22:00 +24°C° 0.3 mm 2 mps 702 mmHg 73%
    23:00 +24°C° 0.5 mm 2 mps 702 mmHg 78%
    Show more